Regional Weather Roundup
Issued by NWS Sterling, VA

Home | Current Version | Previous Version | Text Only | Print | Product List | Glossary On
Versions: 1 2 3 4 5 6 7 8 9 10 11 12 13 14 15 16 17 18 19 20 21 22 23 24 25 26 27 28 29 30 31 32 33 34 35 36 37 38 39 40 41 42 43 44 45 46 47 48 49 50
000
ASUS41 KLWX 281710
RWRLWX

REGIONAL WEATHER ROUNDUP
NATIONAL WEATHER SERVICE BALTIMORE MD/WASHINGTON DC
1200 PM EST SAT FEB 28 2015

Note: "FAIR" indicates few or no clouds below 12,000 feet
with no significant weather and/or obstructions to visibility.
 TC=TEMPERATURE CELSIUS

 * =Non NWS site. Station does not report precipitation (e.g. rain,
    snow, etc.), thunder, or fog.

DCZ001-MDZ009-015-VAZ040>042-051-053>054-281800-
WASHINGTON METRO

CITY           SKY/WX    TMP DP  RH WIND       PRES   REMARKS
WASHINGTON NAT PTSUNNY   28   3  34 E5        30.86F
DULLES         PTSUNNY   24  -5  27 CALM      30.83F
ANDREWS AFB    MOSUNNY   24   0  35 NW5       30.83F
FT BELVOIR     MOSUNNY   27   0  32 W5        30.85F
QUANTICO       MOSUNNY   26   4  38 E6        30.87F
COLLEGE PARK*  MOSUNNY   27   1  33 CALM      30.85F
LEESBURG*      SUNNY     27   3  36 N6        30.84F
MANASSAS*      SUNNY     25   0  33 CALM      30.85F
GAITHERSBURG*  SUNNY     21  -4  33 CALM      30.85F

$$

MDZ006>007-011-014-281800-
BALTIMORE METRO

CITY           SKY/WX    TMP DP  RH WIND       PRES   REMARKS
BWI AIRPORT    PTSUNNY   25  -2  31 VRB3      30.84F
MD SCIENCE CTR   N/A     24  -3  30 MISG      30.86F
MARTIN STATE   MOSUNNY   25   0  33 CALM      30.88F
ANNAPOLIS      PTSUNNY   26   1  34 CALM      30.86F
FORT MEADE*    MOSUNNY   23   0  36 N5        30.87F

$$

MDZ012-015-019>023-281800-
MARYLAND EASTERN SHORE

CITY           SKY/WX    TMP DP  RH WIND       PRES   REMARKS
OCEAN CITY     MOSUNNY   26  10  50 NE9       30.84F WCI  17
SALISBURY      PTSUNNY   29   6  38 CALM      30.83F
CAMBRIDGE*     PTSUNNY   28   9  43 NW6       30.85F
EASTON*        MOSUNNY   28   7  40 NW3       30.88

$$

MDZ017>025-281800-
SOUTHERN MARYLAND

CITY           SKY/WX    TMP DP  RH WIND       PRES   REMARKS
PATUXENT RIVER CLOUDY    24   8  50 NE13      30.85F WCI  12
ST INIGOES     MOSUNNY   26   6  42 NE6       30.84F
LEONARDTOWN*   MOSUNNY   27   7  43 E6        30.86F

$$

MDZ003>005-281800-
NORTH CENTRAL MARYLAND

CITY           SKY/WX    TMP DP  RH WIND       PRES   REMARKS
FREDERICK*     SUNNY     27  -9  20 CALM      30.88F
HAGERSTOWN APT SUNNY     22  -1  36 W6        30.81S
WESTMINSTER*   SUNNY     19  -4  35 N3        30.80S

$$

MDZ501>502-281800-
WESTERN MARYLAND

CITY           SKY/WX    TMP DP  RH WIND       PRES   REMARKS
OAKLAND*       SUNNY     19  -8  30 E8        30.56F WCI   9
CUMBERLAND*    SUNNY     27   1  33 SW5       30.82F

$$

VAZ025>031-281800-
SHENANDOAH VALLEY

CITY           SKY/WX    TMP DP  RH WIND       PRES   REMARKS
WINCHESTER*    SUNNY     28  -4  24 SW3       30.79F
FRONT ROYAL*   FAIR      23   3  42 CALM      30.79F
LURAY*         FAIR      30   9  40 CALM      30.77F
NEW MARKET*    PTSUNNY   23   4  45 CALM      30.75F
STAUNTON*      MOSUNNY   22   4  45 CALM      30.76F
WAYNESBORO*    FAIR      21   6  51 CALM      30.72F

$$

WVZ021-048>050-054>055-281800-
EASTERN WEST VIRGINIA PANHANDLE

CITY           SKY/WX    TMP DP  RH WIND       PRES   REMARKS
MARTINSBURG    SUNNY     26   2  35 VRB5      30.81F
PETERSBURG*    NOT AVBL

$$

VAZ036>039-050-281800-
CENTRAL FOOTHILLS

CITY           SKY/WX    TMP DP  RH WIND       PRES   REMARKS
CHARLOTTESVILL PTSUNNY   24   3  40 S5        30.80F
CULPEPER*      MOSUNNY   27   3  36 N5        30.83F
ORANGE*        PTSUNNY   27   5  39 CALM      30.84F
GORDONSVILLE*  FAIR      24   2  39 NE5       30.82F
WARRENTON*     FAIR      28   6  40 NE5       30.83F

$$

VAZ055>057-281800-
NORTH AND CENTRAL PIEDMONT

CITY           SKY/WX    TMP DP  RH WIND       PRES   REMARKS
FREDERICKSBRG* PTSUNNY   28   3  33 SE5       30.85F
STAFFORD*      PTSUNNY   26  -3  29 NE3       30.88F

$$

NCZ024-NYZ072-PAZ021-071-VAZ022-071-281800-
OTHER REGIONAL OBSERVATIONS

CITY           SKY/WX    TMP DP  RH WIND       PRES   REMARKS
NEW YORK CITY  SUNNY     23  -2  33 NW5       30.83S
PHILADELPHIA   MOSUNNY   25  -2  31 NW5       30.85F
PITTSBURGH     MOSUNNY   19   2  47 E7        30.73F
ROANOKE        PTSUNNY   25   9  50 SE7       30.77S
RICHMOND       CLOUDY    30   4  33 NW5       30.83F
RALEIGH        CLOUDY    31  11  43 NE8       30.76F WCI  23

$$

ANZ530>537-281800-
MARINE OBSERVATIONS

STATION/POSITION TIME  TEMP    WIND        PRES
                       AIR SEA DIR/SP/G
                 (UTC) (F)     (DEG/KT/KT) (MB)
THOMAS PT LIGHT  1700   20 31   50/  7/  8 1045.8F
BALT KEY BRIDGE  1600   21     320/  2/  4 1045.6R
COVE POINT       1600   20      10/  8/ 10 1045.2R
LEWISETTA        1600   24 32   CALM  /  1 1044.8S
SOLOMONS ISLAND  1612      32                N/A

$$



USA.gov is the U.S. government's official web portal to all federal, state and local government web resources and services.